When you browse on this site, cookies collect data to enhance your experience and personalize the content and advertising you see.
Visit our Privacy Policy to learn more. By continuing to use the site, you agree to this use of cookies and data.
  • In Czech Republic
  • List of Countries
  • For 7 days
  • Water Temperature
  • Satellite Maps
  • Weather Map
  • Weather Widgets
  • user-avatar
    Login

    Hourly Weather Dhaka

    Today, 23 March, Saturday

    Time Temperature Precipitation Wind Pressure Humidity
    00:00 +29°C° 0 mm 3 mps 755 mmHg 69%
    01:00 +28°C° 0.2 mm 3 mps 755 mmHg 71%
    02:00 +28°C° 0.2 mm 3 mps 755 mmHg 74%
    03:00 +27°C° 0.2 mm 3 mps 755 mmHg 77%
    04:00 +27°C° 0.1 mm 2 mps 755 mmHg 78%
    05:00 +27°C° 0.1 mm 2 mps 755 mmHg 79%
    06:00 +26°C° 0 mm 1 mps 756 mmHg 77%
    07:00 +28°C° 0 mm 2 mps 757 mmHg 66%
    08:00 +30°C° 0 mm 2 mps 757 mmHg 55%
    09:00 +32°C° 0 mm 2 mps 757 mmHg 43%
    10:00 +34°C° 0 mm 3 mps 757 mmHg 36%
    11:00 +36°C° 0 mm 3 mps 757 mmHg 28%
    12:00 +37°C° 0 mm 3 mps 757 mmHg 26%
    13:00 +37°C° 0 mm 3 mps 756 mmHg 23%
    14:00 +38°C° 0 mm 4 mps 756 mmHg 21%
    15:00 +40°C° 0 mm 4 mps 755 mmHg 18%
    16:00 +37°C° 0 mm 3 mps 755 mmHg 19%
    17:00 +36°C° 0 mm 3 mps 755 mmHg 20%
    18:00 +33°C° 0 mm 1 mps 754 mmHg 23%
    19:00 +32°C° 0 mm 2 mps 755 mmHg 27%
    20:00 +31°C° 0 mm 2 mps 755 mmHg 31%
    21:00 +30°C° 0 mm 3 mps 755 mmHg 36%
    22:00 +29°C° 0 mm 3 mps 755 mmHg 44%
    23:00 +28°C° 0 mm 2 mps 755 mmHg 52%

    Tomorrow, 24 March, Sunday

    Time Temperature Precipitation Wind Pressure Humidity
    00:00 +27°C° 0 mm 2 mps 755 mmHg 60%
    01:00 +27°C° 0 mm 2 mps 755 mmHg 63%
    02:00 +26°C° 0 mm 2 mps 755 mmHg 67%
    03:00 +26°C° 0 mm 2 mps 755 mmHg 70%
    04:00 +26°C° 0 mm 2 mps 755 mmHg 68%
    05:00 +25°C° 0 mm 2 mps 755 mmHg 65%
    06:00 +25°C° 0 mm 2 mps 755 mmHg 62%
    07:00 +27°C° 0 mm 2 mps 756 mmHg 53%
    08:00 +29°C° 0 mm 2 mps 757 mmHg 44%
    09:00 +31°C° 0 mm 2 mps 757 mmHg 35%
    10:00 +34°C° 0 mm 2 mps 757 mmHg 29%
    11:00 +36°C° 0 mm 2 mps 757 mmHg 22%
    12:00 +37°C° 0 mm 2 mps 757 mmHg 15%
    13:00 +38°C° 0 mm 2 mps 756 mmHg 14%
    14:00 +39°C° 0 mm 3 mps 755 mmHg 12%
    15:00 +39°C° 0 mm 3 mps 754 mmHg 10%
    16:00 +38°C° 0 mm 3 mps 754 mmHg 12%
    17:00 +36°C° 0 mm 2 mps 754 mmHg 14%
    18:00 +35°C° 0 mm 2 mps 754 mmHg 16%
    19:00 +32°C° 0 mm 2 mps 754 mmHg 18%
    20:00 +31°C° 0 mm 2 mps 755 mmHg 19%
    21:00 +30°C° 0 mm 2 mps 755 mmHg 21%
    22:00 +29°C° 0 mm 2 mps 755 mmHg 31%
    23:00 +28°C° 0 mm 2 mps 755 mmHg 40%

    Day after tomorrow, 25 March, Monday

    Time Temperature Precipitation Wind Pressure Humidity
    00:00 +27°C° 0 mm 2 mps 755 mmHg 49%
    01:00 +27°C° 0 mm 1 mps 755 mmHg 51%
    02:00 +26°C° 0 mm 1 mps 755 mmHg 54%
    03:00 +26°C° 0 mm 1 mps 755 mmHg 56%
    04:00 +25°C° 0 mm 1 mps 755 mmHg 58%
    05:00 +25°C° 0 mm 2 mps 755 mmHg 60%
    06:00 +25°C° 0 mm 2 mps 755 mmHg 62%
    07:00 +27°C° 0 mm 2 mps 756 mmHg 54%
    08:00 +29°C° 0 mm 2 mps 757 mmHg 47%
    09:00 +31°C° 0 mm 2 mps 757 mmHg 39%
    10:00 +34°C° 0 mm 2 mps 757 mmHg 32%
    11:00 +36°C° 0 mm 2 mps 757 mmHg 24%
    12:00 +38°C° 0 mm 2 mps 756 mmHg 17%
    13:00 +39°C° 0 mm 2 mps 755 mmHg 15%
    14:00 +39°C° 0 mm 2 mps 754 mmHg 14%
    15:00 +40°C° 0 mm 2 mps 754 mmHg 12%
    16:00 +39°C° 0 mm 2 mps 753 mmHg 14%
    17:00 +36°C° 0 mm 1 mps 753 mmHg 16%
    18:00 +33°C° 0 mm 0 mps 753 mmHg 18%
    19:00 +34°C° 0 mm 1 mps 754 mmHg 21%
    20:00 +32°C° 0 mm 2 mps 755 mmHg 23%
    21:00 +32°C° 0 mm 4 mps 755 mmHg 25%
    22:00 +30°C° 0 mm 3 mps 755 mmHg 29%
    23:00 +30°C° 0 mm 3 mps 755 mmHg 33%

    26 March, Tuesday

    Time Temperature Precipitation Wind Pressure Humidity
    00:00 +29°C° 0 mm 3 mps 755 mmHg 37%
    01:00 +28°C° 0 mm 3 mps 755 mmHg 39%
    02:00 +27°C° 0 mm 2 mps 755 mmHg 42%
    03:00 +27°C° 0 mm 2 mps 755 mmHg 44%
    04:00 +26°C° 0 mm 2 mps 755 mmHg 45%
    05:00 +26°C° 0 mm 2 mps 755 mmHg 45%
    06:00 +25°C° 0 mm 2 mps 755 mmHg 46%
    07:00 +28°C° 0 mm 2 mps 756 mmHg 42%
    08:00 +30°C° 0 mm 2 mps 757 mmHg 39%
    09:00 +32°C° 0 mm 2 mps 758 mmHg 36%
    10:00 +35°C° 0 mm 2 mps 757 mmHg 31%
    11:00 +37°C° 0 mm 2 mps 757 mmHg 26%
    12:00 +39°C° 0 mm 2 mps 757 mmHg 22%
    13:00 +40°C° 0 mm 2 mps 756 mmHg 20%
    14:00 +41°C° 0 mm 2 mps 755 mmHg 18%
    15:00 +41°C° 0 mm 2 mps 754 mmHg 16%
    16:00 +40°C° 0 mm 2 mps 754 mmHg 18%
    17:00 +39°C° 0 mm 2 mps 754 mmHg 20%
    18:00 +36°C° 0 mm 1 mps 753 mmHg 22%
    19:00 +36°C° 0 mm 3 mps 754 mmHg 28%
    20:00 +35°C° 0 mm 4 mps 755 mmHg 33%
    21:00 +34°C° 0 mm 5 mps 756 mmHg 39%
    22:00 +32°C° 0.7 mm 6 mps 757 mmHg 46%
    23:00 +29°C° 0.7 mm 7 mps 757 mmHg 53%

    27 March, Wednesday

    Time Temperature Precipitation Wind Pressure Humidity
    00:00 +27°C° 0.7 mm 8 mps 757 mmHg 59%
    01:00 +28°C° 0.6 mm 6 mps 757 mmHg 57%
    02:00 +28°C° 0.6 mm 4 mps 757 mmHg 55%
    03:00 +28°C° 0.6 mm 2 mps 756 mmHg 53%
    04:00 +27°C° 0.2 mm 3 mps 756 mmHg 56%
    05:00 +27°C° 0.2 mm 3 mps 756 mmHg 59%
    06:00 +26°C° 0.2 mm 4 mps 757 mmHg 62%
    07:00 +28°C° 0 mm 4 mps 757 mmHg 59%
    08:00 +29°C° 0 mm 4 mps 758 mmHg 56%
    09:00 +30°C° 0 mm 4 mps 758 mmHg 53%
    10:00 +31°C° 0 mm 3 mps 758 mmHg 48%
    11:00 +33°C° 0 mm 3 mps 758 mmHg 43%
    12:00 +34°C° 0 mm 3 mps 757 mmHg 38%
    13:00 +35°C° 0 mm 3 mps 756 mmHg 35%
    14:00 +36°C° 0 mm 3 mps 755 mmHg 32%
    15:00 +37°C° 0 mm 3 mps 755 mmHg 28%
    16:00 +36°C° 0.1 mm 2 mps 755 mmHg 32%
    17:00 +35°C° 0.1 mm 2 mps 755 mmHg 35%
    18:00 +33°C° 0.1 mm 1 mps 755 mmHg 38%
    19:00 +32°C° 0.1 mm 1 mps 755 mmHg 41%
    20:00 +31°C° 0.1 mm 1 mps 756 mmHg 43%
    21:00 +28°C° 0.1 mm 0 mps 756 mmHg 46%
    22:00 +29°C° 0 mm 1 mps 756 mmHg 49%
    23:00 +28°C° 0 mm 1 mps 757 mmHg 53%

    28 March, Thursday

    Time Temperature Precipitation Wind Pressure Humidity
    00:00 +28°C° 0 mm 1 mps 757 mmHg 56%
    01:00 +27°C° 0 mm 1 mps 756 mmHg 59%
    02:00 +27°C° 0 mm 1 mps 756 mmHg 62%
    03:00 +26°C° 0 mm 1 mps 756 mmHg 65%
    04:00 +26°C° 0 mm 1 mps 756 mmHg 68%
    05:00 +26°C° 0 mm 1 mps 756 mmHg 70%
    06:00 +25°C° 0 mm 2 mps 757 mmHg 73%
    07:00 +27°C° 0 mm 2 mps 757 mmHg 68%
    08:00 +29°C° 0 mm 1 mps 758 mmHg 63%
    09:00 +31°C° 0 mm 1 mps 759 mmHg 58%
    10:00 +32°C° 0 mm 1 mps 758 mmHg 50%
    11:00 +34°C° 0 mm 1 mps 758 mmHg 42%
    12:00 +34°C° 0 mm 0 mps 757 mmHg 34%
    13:00 +36°C° 0 mm 1 mps 756 mmHg 32%
    14:00 +37°C° 0 mm 1 mps 755 mmHg 29%
    15:00 +38°C° 0 mm 2 mps 754 mmHg 27%
    16:00 +36°C° 0 mm 1 mps 754 mmHg 29%
    17:00 +35°C° 0 mm 1 mps 754 mmHg 31%
    18:00 +35°C° 0 mm 1 mps 754 mmHg 32%
    19:00 +34°C° 0 mm 1 mps 755 mmHg 33%
    20:00 +33°C° 0 mm 1 mps 755 mmHg 34%
    21:00 +32°C° 0 mm 1 mps 756 mmHg 35%
    22:00 +31°C° 0 mm 2 mps 756 mmHg 43%
    23:00 +30°C° 0 mm 3 mps 756 mmHg 51%
    Show more